McConnell AFB, KS

2:26 AM CDT on July 21, 2019 (GMT -0500)
McConnell Air Force Base

Weather History for KIAB - May, 2019

Change the Weather History Date:

Sunday, May 5, 2019

  Actual Average Record
Temperature  
Mean Temperature 64 °F -  
Max Temperature 75 °F 72 °F 92 °F (2014)
Min Temperature 53 °F 51 °F 42 °F (2013)
Degree Days  
Heating Degree Days 1    
Growing Degree Days 14 (Base 50)    
Moisture  
Dew Point 59 °F    
Average Humidity 78    
Maximum Humidity 100    
Minimum Humidity 61    
Precipitation  
Precipitation 0.93 in - - ()
Sea Level Pressure  
Sea Level Pressure 29.83 in    
Wind  
Wind Speed 11 mph (ESE)    
Max Wind Speed 22 mph    
Max Gust Speed 31 mph    
Visibility 9 miles    
Events Rain , Thunderstorm    
Averages and records for this station are not official NWS values.
T = Trace of Precipitation, MM = Missing Value Source: NWS Daily Summary

Daily Weather History Graph

Daily Weather History Graph

Search for Another Location

Airport or City:

Astronomy

May. 05, 2019 Rise Set
Actual Time 6:29 AM CDT 8:22 PM CDT
Civil Twilight 6:00 AM CDT 8:51 PM CDT
Nautical Twilight 5:26 AM CDT 9:25 PM CDT
Astronomical Twilight 4:49 AM CDT 10:03 PM CDT
Moon 7:13 AM CDT (5/5) 9:17 PM CDT (5/5)
Length of Visible Light 14h 50m
Length of Day
13h 53m
New Moon, 1% of the Moon is Illuminated
May 5
New Moon
May 11
First Quarter
May 18
Full
May 26
Last Quarter
Jun 3
New

Hourly Weather History & Observations

Time (CDT) Temp. Dew Point Humidity Pressure Visibility Wind Dir Wind Speed Gust Speed Precip Events Conditions
12:56 AM 55.4 °F 52.0 °F 88% 29.92 in 10.0 mi South 6.9 mph - N/A   Partly Cloudy
1:56 AM 54.1 °F 51.3 °F 90% 29.88 in 10.0 mi SSE 5.8 mph - N/A   Clear
2:56 AM 55.4 °F 52.0 °F 88% 29.88 in 10.0 mi SSE 6.9 mph - N/A   Mostly Cloudy
3:56 AM 55.8 °F 52.5 °F 89% 29.86 in 10.0 mi SSE 5.8 mph - N/A   Overcast
4:56 AM 55.6 °F 52.7 °F 90% 29.85 in 10.0 mi SE 6.9 mph - N/A   Mostly Cloudy
5:56 AM 54.1 °F 52.5 °F 94% 29.85 in 10.0 mi South 6.9 mph - N/A   Mostly Cloudy
6:56 AM 53.8 °F 52.7 °F 96% 29.86 in 10.0 mi ESE 5.8 mph - N/A   Clear
7:56 AM 58.3 °F 54.1 °F 86% 29.88 in 10.0 mi SE 8.1 mph - N/A   Clear
8:56 AM 62.6 °F 55.2 °F 77% 29.89 in 10.0 mi SE 15.0 mph - N/A   Partly Cloudy
9:56 AM 65.5 °F 55.0 °F 69% 29.89 in 10.0 mi SSE 15.0 mph - N/A   Clear
10:56 AM 65.5 °F 54.1 °F 67% 29.88 in 10.0 mi SSE 13.8 mph - N/A   Scattered Clouds
11:56 AM 66.4 °F 55.4 °F 68% 29.88 in 10.0 mi SSE 15.0 mph - N/A   Scattered Clouds
12:56 PM 70.3 °F 58.5 °F 66% 29.86 in 10.0 mi SSE 15.0 mph - N/A   Partly Cloudy
1:44 PM 69.8 °F 59.0 °F 68% 29.85 in 10.0 mi SE 16.1 mph - N/A   Mostly Cloudy
1:50 PM 71.6 °F 59.0 °F 64% 29.84 in 10.0 mi SE 16.1 mph - N/A   Mostly Cloudy
1:54 PM 71.6 °F 59.0 °F 64% 29.84 in 10.0 mi SE 13.8 mph 23.0 mph N/A   Scattered Clouds
1:56 PM 70.7 °F 58.8 °F 66% 29.84 in 10.0 mi SE 11.5 mph 23.0 mph N/A   Scattered Clouds
2:12 PM 71.6 °F 59.0 °F 64% 29.84 in 10.0 mi SE 15.0 mph 20.7 mph N/A   Mostly Cloudy
2:48 PM 71.6 °F 59.0 °F 64% 29.84 in 10.0 mi SSE 13.8 mph 21.9 mph N/A   Scattered Clouds
2:56 PM 70.5 °F 59.4 °F 68% 29.83 in 10.0 mi SSE 17.3 mph - N/A   Mostly Cloudy
3:56 PM 73.4 °F 60.4 °F 64% 29.80 in 10.0 mi SSE 11.5 mph - N/A   Partly Cloudy
4:56 PM 74.3 °F 60.4 °F 62% 29.78 in 10.0 mi SE 12.7 mph - N/A   Partly Cloudy
5:31 PM 75.2 °F 60.8 °F 61% 29.78 in 10.0 mi ESE 16.1 mph - N/A   Mostly Cloudy
5:56 PM 73.4 °F 59.5 °F 62% 29.77 in 10.0 mi ESE 15.0 mph 19.6 mph N/A   Scattered Clouds
6:56 PM 72.5 °F 59.5 °F 64% 29.75 in 10.0 mi ESE 15.0 mph - N/A   Clear
7:56 PM 70.9 °F 60.6 °F 70% 29.77 in 10.0 mi ESE 10.4 mph - N/A   Scattered Clouds
8:12 PM 71.6 °F 60.8 °F 69% 29.79 in 10.0 mi SE 5.8 mph - N/A Rain , Thunderstorm Light Rain
8:28 PM 69.8 °F 62.6 °F 78% 29.79 in 10.0 mi SE 13.8 mph - N/A Thunderstorm Mostly Cloudy
8:35 PM 69.8 °F 62.6 °F 78% 29.78 in 10.0 mi ESE 16.1 mph - N/A Thunderstorm Thunderstorm
8:36 PM 69.8 °F 62.6 °F 78% 29.78 in 10.0 mi ESE 17.3 mph - N/A Rain , Thunderstorm Light Thunderstorms and Rain
8:50 PM 69.8 °F 60.8 °F 73% 29.78 in 10.0 mi ESE 13.8 mph - N/A Rain , Thunderstorm Light Thunderstorms and Rain
8:51 PM 69.8 °F 60.8 °F 73% 29.78 in 10.0 mi ESE 16.1 mph - N/A Rain , Thunderstorm Light Rain
8:56 PM 69.3 °F 61.0 °F 75% 29.78 in 10.0 mi ESE 16.1 mph 21.9 mph 0.02 in Rain , Thunderstorm Light Rain
9:10 PM 68.0 °F 60.8 °F 78% 29.75 in 10.0 mi East 16.1 mph - N/A Thunderstorm Overcast
9:15 PM 68.0 °F 60.8 °F 78% 29.75 in 10.0 mi East 11.5 mph - N/A Thunderstorm Thunderstorm
9:30 PM 68.0 °F 60.8 °F 78% 29.79 in 10.0 mi East 5.8 mph - N/A   Overcast
9:37 PM 68.0 °F 60.8 °F 78% 29.80 in 10.0 mi North 8.1 mph - N/A Rain , Thunderstorm Light Rain
9:39 PM 68.0 °F 60.8 °F 78% 29.80 in 10.0 mi North 9.2 mph - N/A Rain , Thunderstorm Light Thunderstorms and Rain
9:49 PM 68.0 °F 62.6 °F 83% 29.82 in 10.0 mi North 6.9 mph - N/A Rain , Thunderstorm Light Thunderstorms and Rain
9:56 PM 67.3 °F 62.6 °F 85% 29.82 in 8.0 mi NNE 11.5 mph - 0.06 in Rain , Thunderstorm Heavy Thunderstorms and Rain
10:16 PM 68.0 °F 62.6 °F 83% 29.86 in 3.0 mi West 5.8 mph - N/A Rain , Thunderstorm Heavy Thunderstorms and Rain
10:18 PM 66.2 °F 62.6 °F 88% 29.86 in 3.0 mi West 8.1 mph - N/A Rain , Thunderstorm Heavy Rain
10:24 PM 66.2 °F 62.6 °F 88% 29.86 in 3.0 mi WNW 13.8 mph - N/A Rain , Thunderstorm Heavy Thunderstorms and Rain
10:27 PM 64.4 °F 62.6 °F 94% 29.86 in 2.8 mi West 17.3 mph 21.9 mph N/A Rain , Thunderstorm Heavy Thunderstorms and Rain
10:37 PM 64.4 °F 62.6 °F 94% 29.86 in 1.8 mi NNE 16.1 mph 21.9 mph N/A Rain , Thunderstorm Heavy Rain
10:39 PM 64.4 °F 62.6 °F 94% 29.85 in 1.4 mi NNE 17.3 mph 21.9 mph N/A Rain , Thunderstorm Heavy Rain
10:40 PM 64.4 °F 62.6 °F 94% 29.85 in 1.2 mi NNE 17.3 mph 21.9 mph N/A Rain , Thunderstorm Heavy Rain
10:42 PM 62.6 °F 62.6 °F 100% 29.85 in 1.0 mi NNE 19.6 mph 27.6 mph N/A Rain Heavy Rain
10:49 PM 60.8 °F 57.2 °F 88% 29.83 in 3.0 mi NE 21.9 mph 31.1 mph N/A Rain Rain
10:56 PM 59.5 °F 55.4 °F 86% 29.82 in 10.0 mi NE 18.4 mph 28.8 mph 0.85 in   Overcast
11:03 PM 59.0 °F 55.4 °F 88% 29.82 in 10.0 mi ENE 16.1 mph 25.3 mph N/A   Mostly Cloudy
11:17 PM 59.0 °F 53.6 °F 82% 29.82 in 10.0 mi ENE 15.0 mph 24.2 mph N/A   Mostly Cloudy
11:56 PM 59.4 °F 53.6 °F 81% 29.83 in 10.0 mi East 11.5 mph - N/A   Mostly Cloudy